User: anonymous   Login
Location: Unspecified
(0.0000°N, 0.0000°E)
Time: 07:54:33
(UTC+00:00)
Language:

Transit 2A - Orbit

View from above orbital plane
View from above orbital plane
View from above satellite
View from above satellite

Ground track
Ground track

The orbit data is extracted from the following two-line orbital elements,

1    45U 60007A   20093.75588013 -.00000062 +00000-0 +11461-4 0  9999
2    45 066.6945 220.4129 0254651 009.0544 351.5018 14.33671892054985
Epoch (UTC): 02 April 2020 18:08:28
Eccentricity: 0.0254651
inclination: 66.6945°
perigee height: 597 km
apogee height: 962 km
right ascension of ascending node: 220.4129°
argument of perigee: 9.0544°
revolutions per day: 14.33671892
mean anomaly at epoch: 351.5018°
orbit number at epoch: 5498

The dashed part of the orbit path shows where the satellite is in the earth's shadow,  

DLR